CW9098 Weather Reports


time (UTC)temp
C
wind
direction
speed
KPH
gust
KPH
rain 1hr
cm
rain 24hr
cm
rain mn
cm
humidity
%
barometer
mb
20260506215123 12 277 8.0 12.9 0.03 0.03 0.03 83 1010.0
20260506214638 12 272 8.0 16.1 0.03 0.03 0.03 84 1010.0
20260506214132 12 306 9.7 16.1 0.03 0.03 0.03 84 1009.9
20260506213625 12 309 11.3 16.1 0.03 0.03 0.03 84 1009.8
20260506213117 12 234 3.2 16.1 0.03 0.03 0.03 84 1009.8
20260506212633 12 278 8.0 16.1 0.03 0.03 0.03 84 1009.6
20260506212140 12 305 4.8 17.7 0.03 0.03 0.03 84 1009.4
20260506211633 12 303 8.0 19.3 0.03 0.03 0.03 83 1009.4
20260506211122 12 311 11.3 25.7 0.00 0.00 0.00 83 1009.3
20260506210634 12 332 16.1 25.7 0.00 0.00 0.00 83 1009.4
20260506210121 12 301 12.9 25.7 0.00 0.00 0.00 82 1009.4
20260506205636 13 303 17.7 25.7 0.00 0.00 0.00 81 1009.4
20260506205121 13 305 16.1 25.7 0.00 0.00 0.00 81 1009.1
20260506204616 13 297 12.9 24.1 0.00 0.00 0.00 81 1009.0
20260506204132 13 279 6.4 19.3 0.00 0.00 0.00 81 1008.9
20260506203638 13 334 9.7 22.5 0.00 0.00 0.00 81 1008.8
20260506203124 13 263 14.5 22.5 0.00 0.00 0.00 80 1008.7
20260506202619 14 276 11.3 24.1 0.00 0.00 0.00 81 1008.7
20260506202132 14 257 12.9 24.1 0.00 0.00 0.00 80 1008.7
20260506201640 14 257 14.5 24.1 0.00 0.00 0.00 80 1008.8
20260506201134 15 245 16.1 24.1 0.00 0.00 0.00 81 1008.8
20260506200636 15 253 16.1 22.5 0.00 0.00 0.00 80 1008.7
20260506200151 15 250 12.9 22.5 0.00 0.00 0.00 81 1008.7
20260506195625 15 241 12.9 19.3 0.00 0.00 0.00 80 1008.7
20260506195118 15 232 12.9 19.3 0.00 0.00 0.00 82 1008.7
20260506194632 15 249 9.7 16.1 0.00 0.00 0.00 83 1008.7
20260506194139 15 282 4.8 14.5 0.00 0.00 0.00 83 1008.6
20260506193631 15 280 9.7 16.1 0.00 0.00 0.00 83 1008.5
20260506193120 15 241 11.3 22.5 0.00 0.00 0.00 83 1008.5
20260506192657 15 270 12.9 22.5 0.00 0.00 0.00 84 1008.4
20260506192143 15 242 8.0 16.1 0.00 0.00 0.00 85 1008.4
20260506191635 14 284 3.2 22.5 0.00 0.00 0.00 85 1008.3
20260506191123 14 227 11.3 22.5 0.00 0.00 0.00 84 1008.3
20260506190638 15 273 12.9 19.3 0.00 0.00 0.00 85 1008.3
20260506190124 15 247 4.8 11.3 0.00 0.00 0.00 85 1008.2
20260506185619 15 269 3.2 16.1 0.00 0.00 0.00 85 1008.1
20260506185132 15 220 8.0 16.1 0.00 0.00 0.00 84 1008.1
20260506184620 15 272 4.8 12.9 0.00 0.00 0.00 84 1007.9
20260506184137 15 273 8.0 12.9 0.00 0.00 0.00 83 1007.9
20260506183622 16 270 3.2 14.5 0.00 0.00 0.00 83 1007.9
20260506183153 16 266 4.8 16.1 0.00 0.00 0.00 83 1008.0
20260506182625 16 258 9.7 17.7 0.00 0.00 0.00 83 1007.9
20260506182118 16 244 11.3 19.3 0.00 0.00 0.00 82 1008.0
20260506181633 16 247 9.7 19.3 0.00 0.00 0.00 82 1007.9
20260506181128 16 305 12.9 17.7 0.00 0.00 0.00 82 1007.9
20260506180642 16 213 11.3 20.9 0.00 0.00 0.00 83 1007.8
20260506180135 16 253 12.9 22.5 0.00 0.00 0.00 83 1007.9
20260506175644 16 252 12.9 22.5 0.00 0.00 0.00 83 1007.9
20260506175138 16 273 14.5 20.9 0.00 0.00 0.00 83 1007.8
20260506174624 16 271 14.5 29.0 0.00 0.00 0.00 83 1007.7
20260506174120 16 276 16.1 29.0 0.00 0.00 0.00 84 1007.7
20260506173634 17 274 14.5 25.7 0.00 0.00 0.00 84 1007.6
20260506173121 17 273 14.5 25.7 0.00 0.00 0.00 85 1007.4
20260506172636 16 287 8.0 24.1 0.00 0.00 0.00 86 1007.4
20260506172121 16 237 14.5 24.1 0.00 0.00 0.00 86 1007.3
20260506171636 16 243 8.0 14.5 0.00 0.00 0.00 86 1007.1
20260506171125 16 203 1.6 8.0 0.00 0.00 0.00 86 1007.0
20260506170619 16 187 3.2 9.7 0.00 0.00 0.00 86 1007.0
20260506170134 16 186 4.8 11.3 0.00 0.00 0.00 86 1007.1
20260506165643 16 189 1.6 11.3 0.00 0.00 0.00 86 1007.0
20260506165135 16 183 4.8 16.1 0.00 0.00 0.00 86 1007.0
20260506164622 16 194 8.0 12.9 0.00 0.00 0.00 86 1006.9
20260506164155 15 201 6.4 8.0 0.00 0.00 0.00 86 1007.0
20260506163629 15 212 1.6 8.0 0.00 0.00 0.00 86 1007.0
20260506163124 15 168 1.6 8.0 0.00 0.00 0.00 86 1006.9
20260506162618 15 187 1.6 8.0 0.00 0.00 0.00 86 1006.9
20260506162133 15 188 3.2 8.0 0.00 0.00 0.00 86 1007.0
20260506161639 15 205 1.6 8.0 0.00 0.00 0.00 86 1007.0
20260506161153 15 189 3.2 8.0 0.00 0.00 0.00 86 1007.0
20260506160620 14 209 1.6 9.7 0.00 0.00 0.00 86 1007.0
20260506160134 14 232 3.2 9.7 0.00 0.00 0.00 86 1007.1
20260506155625 14 215 3.2 12.9 0.00 0.00 0.00 86 1007.1
20260506155119 14 194 6.4 12.9 0.00 0.00 0.00 86 1007.1
20260506154654 14 190 3.2 8.0 0.00 0.00 0.00 86 1007.0
20260506154121 14 205 1.6 9.7 0.00 0.00 0.00 86 1007.0
20260506153635 14 206 3.2 9.7 0.00 0.00 0.00 86 1007.0
20260506153122 14 206 1.6 9.7 0.00 0.00 0.00 86 1007.0
20260506152659 14 193 1.6 9.7 0.00 0.00 0.00 86 1006.9
20260506152125 14 203 0.0 8.0 0.00 0.00 0.00 86 1006.9
20260506151619 14 204 1.6 8.0 0.00 0.00 0.00 86 1006.7
20260506151133 14 214 3.2 11.3 0.00 0.00 0.00 86 1006.6
20260506150619 14 209 4.8 11.3 0.00 0.00 0.00 86 1006.5
20260506150114 14 207 4.8 11.3 0.00 0.00 0.00 86 1006.5
20260506145627 14 206 3.2 14.5 0.00 0.00 0.00 86 1006.4
20260506145140 14 246 4.8 14.5 0.00 0.00 0.00 86 1006.4
20260506144628 14 213 3.2 14.5 0.00 0.00 0.00 86 1006.3
20260506144123 14 210 9.7 14.5 0.00 0.00 0.00 86 1006.1
20260506143617 14 222 11.3 14.5 0.00 0.00 0.00 86 1006.1
20260506143130 14 222 9.7 14.5 0.00 0.00 0.00 86 1006.2
20260506142625 14 214 4.8 17.7 0.00 0.00 0.00 86 1006.1
20260506142119 14 203 6.4 14.5 0.00 0.00 0.00 86 1006.2
20260506141634 13 201 4.8 14.5 0.00 0.00 0.00 86 1006.0
20260506141145 13 214 3.2 16.1 0.00 0.00 0.00 86 1006.0
20260506140636 13 193 6.4 16.1 0.00 0.00 0.00 86 1006.1
20260506140121 13 205 8.0 16.1 0.00 0.00 0.00 86 1006.2
20260506135636 13 205 8.0 17.7 0.00 0.00 0.00 86 1006.3
20260506135122 13 216 6.4 12.9 0.00 0.00 0.00 86 1006.4
20260506134617 13 212 4.8 12.9 0.00 0.00 0.00 86 1006.3
20260506134133 13 197 6.4 12.9 0.00 0.00 0.00 86 1006.5
20260506133620 13 203 4.8 9.7 0.00 0.00 0.00 86 1006.7
20260506133134 13 197 4.8 8.0 0.00 0.00 0.00 86 1006.7
20260506132620 13 187 3.2 8.0 0.00 0.00 0.00 86 1006.6
20260506132136 13 198 3.2 6.4 0.00 0.00 0.00 86 1006.7
20260506131642 13 205 1.6 6.4 0.00 0.00 0.00 86 1006.8
20260506131155 13 199 0.0 3.2 0.00 0.00 0.00 86 1006.8
20260506130621 13 199 1.6 6.4 0.00 0.00 0.00 86 1006.7
20260506130116 13 199 1.6 6.4 0.00 0.00 0.00 86 1006.7
20260506125629 13 199 0.0 3.2 0.00 0.00 0.00 86 1006.8
20260506125135 13 201 0.0 6.4 0.00 0.00 0.00 86 1006.7
20260506124628 13 203 3.2 6.4 0.00 0.00 0.00 86 1006.6
20260506124137 13 185 1.6 3.2 0.00 0.00 0.00 86 1006.7
20260506123643 12 185 0.0 0.0 0.00 0.00 0.00 86 1006.7
20260506123115 12 186 0.0 1.6 0.00 0.00 0.00 86 1006.7
20260506122632 12 185 0.0 6.4 0.00 0.00 0.00 86 1006.7
20260506122120 12 185 0.0 6.4 0.00 0.00 0.00 86 1006.7
20260506121634 12 188 0.0 4.8 0.00 0.00 0.00 86 1006.6
20260506121142 12 190 1.6 4.8 0.00 0.00 0.00 86 1006.9
20260506120635 12 192 0.0 4.8 0.00 0.00 0.00 86 1006.9
20260506120142 12 191 0.0 4.8 0.00 0.00 0.00 86 1006.7
20260506115637 12 191 0.0 1.6 0.00 0.00 0.00 86 1006.4
20260506115124 12 191 0.0 1.6 0.00 0.00 0.00 86 1006.5
20260506114618 12 191 0.0 3.2 0.00 0.00 0.00 86 1006.7
20260506114154 12 191 0.0 3.2 0.00 0.00 0.00 86 1006.7
20260506113636 12 191 0.0 3.2 0.00 0.00 0.00 86 1006.8
20260506113123 12 193 0.0 0.0 0.00 0.00 0.00 86 1006.9
20260506112619 12 193 0.0 0.0 0.00 0.00 0.00 86 1007.0
20260506112132 12 193 0.0 0.0 0.00 0.00 0.00 86 1006.9
20260506111640 12 192 0.0 1.6 0.00 0.00 0.00 87 1006.9
20260506111134 12 191 0.0 1.6 0.00 0.00 0.00 87 1006.9
20260506110640 12 195 0.0 1.6 0.00 0.00 0.00 87 1007.0
20260506110135 12 195 0.0 3.2 0.00 0.00 0.00 87 1007.0
20260506105622 12 198 0.0 4.8 0.00 0.00 0.00 87 1006.9
20260506105135 12 199 1.6 4.8 0.00 0.00 0.00 87 1007.0
20260506104623 13 199 0.0 1.6 0.00 0.00 0.00 87 1007.0
20260506104120 13 200 0.0 0.0 0.00 0.00 0.00 87 1007.0
20260506103635 13 200 0.0 0.0 0.00 0.00 0.00 86 1006.9
20260506103121 13 199 0.0 0.0 0.00 0.00 0.00 86 1006.8
20260506102637 13 207 0.0 0.0 0.00 0.00 0.00 86 1006.7
20260506102144 13 207 0.0 0.0 0.00 0.00 0.00 86 1006.8
20260506101618 13 207 0.0 0.0 0.00 0.00 0.00 86 1006.7
20260506101133 13 207 0.0 0.0 0.00 0.00 0.00 86 1006.7
20260506100621 13 209 0.0 0.0 0.00 0.00 0.00 86 1006.7
20260506100116 13 209 0.0 0.0 0.00 0.00 0.00 86 1006.5
20260506095633 13 220 0.0 0.0 0.00 0.00 0.00 86 1006.6
20260506095119 13 220 0.0 0.0 0.00 0.00 0.00 86 1006.5
20260506094632 13 218 0.0 0.0 0.00 0.00 0.00 85 1006.4
20260506094120 13 218 0.0 0.0 0.00 0.00 0.00 85 1006.5
20260506093616 13 218 0.0 0.0 0.00 0.00 0.00 85 1006.5
20260506093146 13 218 0.0 0.0 0.00 0.00 0.00 85 1006.5
20260506092619 13 218 0.0 3.2 0.00 0.00 0.00 84 1006.6
20260506092131 13 218 0.0 3.2 0.00 0.00 0.00 84 1006.6
20260506091624 13 220 0.0 4.8 0.00 0.00 0.00 84 1006.6
20260506091120 13 197 1.6 4.8 0.00 0.00 0.00 84 1006.6
20260506090652 13 178 0.0 0.0 0.00 0.00 0.00 84 1006.5
20260506090120 13 178 0.0 0.0 0.00 0.00 0.00 84 1006.7
20260506085636 13 178 0.0 0.0 0.00 0.00 0.00 84 1006.7
20260506085122 13 177 0.0 0.0 0.00 0.00 0.00 84 1006.6
20260506084616 13 181 0.0 0.0 0.00 0.00 0.00 83 1006.7
20260506084133 13 180 0.0 0.0 0.00 0.00 0.00 83 1006.5
20260506083620 13 139 0.0 0.0 0.00 0.00 0.00 83 1006.5
20260506083116 13 139 0.0 0.0 0.00 0.00 0.00 83 1006.4
20260506082653 13 139 0.0 0.0 0.00 0.00 0.00 83 1006.5
20260506082119 14 138 0.0 0.0 0.00 0.00 0.00 82 1006.5
20260506081633 14 138 0.0 0.0 0.00 0.00 0.00 82 1006.5
20260506081121 14 138 0.0 0.0 0.00 0.00 0.00 82 1006.6
20260506080635 14 138 0.0 0.0 0.00 0.00 0.00 82 1006.7
20260506080143 14 138 0.0 0.0 0.00 0.00 0.00 81 1006.6
20260506073131 14 138 0.0 0.0 0.00 0.00 0.00 82 1007.0
20260506072628 13 141 0.0 0.0 0.00 0.00 0.00 83 1007.1
20260506072123 13 141 0.0 0.0 0.00 0.00 0.00 83 1007.2
20260506071617 13 141 0.0 1.6 0.00 0.00 0.00 83 1007.3
20260506071132 13 141 0.0 4.8 0.00 0.00 0.00 83 1007.3
20260506070618 14 139 3.2 4.8 0.00 0.00 0.00 83 1007.3
20260506070133 14 216 0.0 0.0 0.00 0.00 0.00 83 1007.4
20260506062143 14 216 0.0 0.0 0.00 0.00 0.00 81 1007.4
20260506061618 14 216 0.0 0.0 0.00 0.00 0.00 81 1007.4
20260506061135 14 216 0.0 0.0 0.00 0.00 0.00 81 1007.5
20260506060621 15 216 0.0 0.0 0.00 0.00 0.00 80 1007.5
20260506060137 15 218 0.0 0.0 0.00 0.00 0.00 79 1007.6
20260506051123 15 218 1.6 4.8 0.00 0.00 0.00 74 1008.3
20260506050637 15 221 1.6 4.8 0.00 0.00 0.00 73 1008.2
20260506050124 15 216 1.6 4.8 0.00 0.00 0.00 75 1008.2
20260506044619 15 215 0.0 0.0 0.00 0.00 0.00 73 1008.4
20260506044133 15 216 0.0 0.0 0.00 0.00 0.00 72 1008.3
20260506043620 15 215 0.0 0.0 0.00 0.00 0.00 74 1008.2
20260506043154 15 214 0.0 0.0 0.00 0.00 0.00 72 1008.2
20260506042623 15 214 0.0 0.0 0.00 0.00 0.00 71 1008.2
20260506042117 15 215 0.0 0.0 0.00 0.00 0.00 72 1008.2
20260506041632 15 266 0.0 6.4 0.00 0.00 0.00 70 1008.2
20260506041143 15 232 1.6 4.8 0.00 0.00 0.00 72 1008.3
20260506040615 15 211 0.0 4.8 0.00 0.00 0.00 71 1008.2
20260506040130 15 211 0.0 4.8 0.00 0.00 0.00 70 1008.3
20260506035619 15 216 0.0 3.2 0.00 0.00 0.00 71 1008.3
20260506035149 15 215 0.0 0.0 0.00 0.00 0.00 71 1008.4
20260506034623 16 215 0.0 0.0 0.00 0.00 0.00 71 1008.5
20260506034138 16 215 0.0 1.6 0.00 0.00 0.00 69 1008.5
20260506033623 16 215 0.0 1.6 0.00 0.00 0.00 68 1008.5
20260506033118 16 216 0.0 4.8 0.00 0.00 0.00 68 1008.5
20260506032632 16 216 0.0 4.8 0.00 0.00 0.00 68 1008.4
20260506032120 16 218 0.0 0.0 0.00 0.00 0.00 68 1008.3
20260506031654 16 218 0.0 6.4 0.00 0.00 0.00 69 1008.2
20260506031119 16 219 0.0 11.3 0.00 0.00 0.00 65 1008.2
20260506030634 15 237 4.8 11.3 0.00 0.00 0.00 67 1008.2
20260506030120 16 176 0.0 1.6 0.00 0.00 0.00 68 1008.1
20260506025656 16 176 0.0 3.2 0.00 0.00 0.00 66 1008.1
20260506025121 16 226 0.0 3.2 0.00 0.00 0.00 64 1008.1
20260506024616 16 210 0.0 0.0 0.00 0.00 0.00 63 1008.2
20260506024133 17 210 0.0 0.0 0.00 0.00 0.00 61 1008.2
20260506023619 17 224 0.0 4.8 0.00 0.00 0.00 61 1008.3
20260506023135 17 229 1.6 4.8 0.00 0.00 0.00 58 1008.2
20260506022621 17 205 0.0 6.4 0.00 0.00 0.00 59 1008.3
20260506022134 17 205 1.6 6.4 0.00 0.00 0.00 56 1008.2
20260506021622 17 191 0.0 1.6 0.00 0.00 0.00 57 1008.3
20260506021136 17 191 0.0 9.7 0.00 0.00 0.00 57 1008.4
20260506020623 17 174 3.2 9.7 0.00 0.00 0.00 55 1008.3
20260506020154 18 176 1.6 3.2 0.00 0.00 0.00 56 1008.2
20260506015642 18 197 0.0 3.2 0.00 0.00 0.00 53 1008.2
20260506015134 18 203 0.0 8.0 0.00 0.00 0.00 51 1008.2
20260506014620 18 176 0.0 12.9 0.00 0.00 0.00 51 1008.2
20260506014136 19 188 6.4 12.9 0.00 0.00 0.00 51 1008.2
20260506013623 19 220 1.6 6.4 0.00 0.00 0.00 50 1008.2
20260506013118 18 206 3.2 6.4 0.00 0.00 0.00 50 1008.1
20260506012655 19 173 1.6 9.7 0.00 0.00 0.00 51 1008.2
20260506012120 19 162 4.8 9.7 0.00 0.00 0.00 50 1008.1
20260506011634 20 176 0.0 11.3 0.00 0.00 0.00 49 1008.2
20260506011122 20 187 0.0 6.4 0.00 0.00 0.00 48 1008.0
20260506010634 20 193 1.6 8.0 0.00 0.00 0.00 47 1008.1
20260506010121 20 199 1.6 14.5 0.00 0.00 0.00 46 1008.0
20260506005637 20 177 8.0 14.5 0.00 0.00 0.00 45 1007.9
20260506005125 20 193 4.8 20.9 0.00 0.00 0.00 45 1007.9
20260506004620 21 193 4.8 14.5 0.00 0.00 0.00 45 1007.9
20260506004156 21 173 8.0 14.5 0.00 0.00 0.00 45 1008.0
20260506003620 21 199 4.8 12.9 0.00 0.00 0.00 44 1007.9
20260506003134 21 202 1.6 8.0 0.00 0.00 0.00 44 1007.9
20260506002623 21 182 1.6 11.3 0.00 0.00 0.00 44 1007.8
20260506002117 21 187 3.2 12.9 0.00 0.00 0.00 43 1007.7
20260506001627 21 172 8.0 12.9 0.00 0.00 0.00 43 1007.7
20260506001144 21 173 6.4 14.5 0.00 0.00 0.00 43 1007.7
20260506000617 21 200 4.8 17.7 0.00 0.03 0.00 41 1007.6
20260506000130 21 193 0.0 12.9 0.00 0.03 0.00 42 1007.6
20260505235623 22 241 4.8 14.5 0.00 0.03 0.00 42 1007.5
20260505235158 22 207 6.4 17.7 0.00 0.03 0.00 42 1007.6
20260505234625 22 204 9.7 22.5 0.00 0.03 0.00 41 1007.6
20260505234120 22 166 14.5 22.5 0.00 0.03 0.00 41 1007.6
20260505233654 22 207 12.9 22.5 0.00 0.03 0.00 42 1007.5
20260505233121 22 193 4.8 17.7 0.00 0.03 0.00 41 1007.5
20260505232638 22 194 1.6 37.0 0.00 0.03 0.00 40 1007.5
20260505232124 22 176 20.9 38.6 0.00 0.03 0.00 40 1007.3
20260505231637 22 212 4.8 22.5 0.00 0.03 0.00 41 1007.4
20260505231132 22 207 9.7 30.6 0.00 0.03 0.00 40 1007.3
20260505230619 22 193 9.7 30.6 0.00 0.03 0.00 41 1007.3
20260505230134 23 249 16.1 29.0 0.00 0.03 0.00 41 1007.3
20260505225620 23 204 12.9 24.1 0.00 0.03 0.00 42 1007.5
20260505225132 23 204 9.7 30.6 0.00 0.03 0.00 42 1007.5
20260505224619 23 195 17.7 30.6 0.00 0.03 0.00 41 1007.5
20260505224135 23 178 17.7 40.2 0.00 0.03 0.00 40 1007.6
20260505223622 23 234 27.4 40.2 0.00 0.03 0.00 40 1007.7
20260505223122 23 236 19.3 40.2 0.00 0.03 0.00 41 1007.7
20260505222618 23 226 20.9 40.2 0.00 0.03 0.00 40 1007.7
20260505222131 24 171 11.3 40.2 0.00 0.03 0.00 41 1007.6
20260505221625 24 210 22.5 40.2 0.00 0.03 0.00 39 1007.5
20260505221121 24 203 6.4 25.7 0.00 0.03 0.00 40 1007.5
20260505220615 24 192 12.9 33.8 0.00 0.03 0.00 39 1007.4
20260505220131 24 210 19.3 33.8 0.00 0.03 0.00 39 1007.4
20260505215639 25 198 8.0 24.1 0.00 0.03 0.00 40 1007.3